[[{"header":{"parameterUnit":"m.s-1","parameterCategory":1,"la1":30.2991,"la2":30.254,"lo1":-89.0895,"lo2":-89.0444,"dy":0.0017,"dx":0.0017,"nx":28,"ny":28,"refTime":"2025-08-22T21:00:00:Z","depth":0,"parameterNumber":2,"parameterNumberName":"U-component_of_WINDS"},"data":[0,0,0,0,0,0,0,0,0,0,0,0,0,0,0,0,0,0,0,0,0,0,0,0,0,0,0,0,0,0,0,0,0,0,0,0,0,0,0,0,0,0,0,0,0,0,0,0,0,0,0,0,0,0,0,0,0,0,2.001,2.0011,0,2.0134,2.0135,2.0137,2.0168,2.0167,2.0166,2.0165,2.0297,2.0301,2.0305,0,0,0,0,0,0,0,0,0,0,0,0,0,1.9802,1.9805,2.0009,2.0011,2.0013,2.0134,2.0136,2.0137,2.0168,2.0167,2.0166,2.0165,2.0295,2.03,2.0306,0,0,0,0,0,0,0,0,0,0,0,0,0,1.9906,1.9807,2.0009,2.0042,2.0047,2.0133,2.0136,2.0138,2.0168,2.0167,2.0166,2.0164,2.0294,2.03,2.0306,2.037,0,0,2.0326,2.0329,0,0,0,0,0,0,0,0,1.99,1.9913,2.0036,2.004,2.0045,2.0134,2.0111,2.0216,2.0168,2.0122,2.0165,2.0164,2.0244,2.0254,2.028,2.0376,2.0382,2.0326,2.033,2.0333,2.0335,0,0,0,0,0,0,0,1.9893,1.9908,2.0059,2.0038,2.0043,2.0052,2.0066,2.0131,2.0189,2.0126,2.0129,2.0143,2.0246,2.0274,2.0284,2.0384,2.0326,2.0332,2.0336,2.0338,2.0538,2.054,0,0,0,0,0,0,1.9879,1.9902,2.0055,2.0063,1.9968,2.0057,2.0072,2.0107,2.0188,2.0199,2.0144,2.0144,2.0264,2.0276,2.0289,2.0369,2.0333,2.0339,2.0343,2.0537,2.0539,2.054,0,0,0,0,0,0,1.9875,1.9892,2.005,1.9983,2.0004,2.0062,2.0101,2.011,2.0138,2.0201,2.0212,2.0161,2.0263,2.028,2.0349,2.0374,2.0342,2.0348,2.0535,2.0538,2.054,2.0529,0,0,0,0,0,0,1.9868,1.9891,1.9915,1.9983,2.0007,2.0108,2.0102,2.0113,2.0148,2.015,2.0221,2.0231,2.0264,2.034,2.0356,2.0382,2.0353,2.0533,2.0536,2.0539,2.0528,2.0531,2.0533,0,0,0,0,0,1.9861,1.9908,1.9916,1.9934,2.0038,2.0109,2.0123,2.0158,2.015,2.0175,2.0216,2.0229,2.0368,2.0346,2.0365,2.0393,2.0532,2.0535,2.0539,2.0526,2.053,2.0533,0,0,0,0,0,0,1.9842,1.9917,1.9927,1.9997,2.0046,2.0114,2.0147,2.0161,2.0214,2.0213,2.0256,2.0272,2.0339,2.0373,2.0348,2.0459,2.045,2.0457,2.0434,2.0439,2.0441,2.0432,2.0358,0,0,0,0,0,1.9846,1.9896,1.9959,2.0015,2.0039,2.0088,2.0121,2.0143,2.0196,2.0218,2.0263,2.0315,2.0371,2.0407,2.0461,2.0533,2.0549,2.0561,2.0564,2.0566,2.0572,2.0612,2.0619,2.0551,2.0551,2.0551,0,0,1.9855,1.9902,1.9931,2.0012,2.0053,2.0105,2.0106,2.0161,2.02,2.0227,2.0295,2.033,2.0391,2.0462,2.0495,2.0492,2.0594,2.057,2.0572,2.0577,2.0616,2.0623,2.0628,2.0554,2.0553,2.0553,0,0,1.9897,1.9937,1.9988,2.0028,2.0089,2.0122,2.0134,2.02,2.0224,2.0292,2.0313,2.0361,2.0456,2.0498,2.0532,2.059,2.0604,2.0607,2.0622,2.0661,2.0666,2.0671,2.0692,2.0698,2.0612,2.0612,2.0612,0,1.99,1.9978,2.0013,2.0066,2.0102,2.0127,2.0179,2.0217,2.0293,2.0318,2.0313,2.0432,2.0475,2.0555,2.0569,2.0596,2.0612,2.0599,2.0662,2.0667,2.0673,2.0693,2.07,2.0612,2.0612,2.0612,2.0612,0,1.9979,2.0033,2.0066,2.0138,2.0177,2.023,2.0273,2.0309,2.0329,2.0362,2.0432,2.0484,2.0549,2.057,2.059,2.0654,2.065,2.0653,2.0645,2.0678,2.0698,2.0706,2.0612,2.0612,2.0612,2.0612,0,0,2.0014,2.0103,2.0115,2.0147,2.0216,2.0258,2.0312,2.0375,2.0405,2.0457,2.0503,2.0582,2.0585,2.0624,2.0649,2.0683,2.0725,2.0682,2.0684,2.0688,2.0799,2.0796,2.0804,2.0735,2.0736,2.0738,2.0794,0,2.0064,2.016,2.0193,2.0273,2.0323,2.0347,2.0394,2.0442,2.0474,2.0523,2.0559,2.0614,2.0614,2.0637,2.0672,2.0712,2.0748,2.0709,2.078,2.0782,2.0763,2.0815,2.0812,2.0862,2.0802,2.0803,2.0804,0,2.0136,2.0187,2.0272,2.0334,2.0356,2.0397,2.0457,2.0503,2.0558,2.0579,2.0621,2.0644,2.0702,2.069,2.0771,2.0744,2.0774,2.0799,2.0802,2.081,2.0795,2.0824,2.0879,2.0887,2.0816,2.0815,2.0815,0,2.0153,2.0243,2.0305,2.0332,2.0406,2.0434,2.0467,2.0521,2.0556,2.0609,2.0632,2.0691,2.0724,2.077,2.0808,2.0795,2.0886,2.0877,2.0906,2.0905,2.0924,2.0922,2.0985,2.0944,2.0944,2.0943,2.0943,0,2.0206,2.0257,2.0313,2.0351,2.0409,2.0446,2.0503,2.0537,2.0584,2.063,2.0655,2.0698,2.0746,2.0795,2.0825,2.0888,2.0903,2.0922,2.093,2.092,2.0917,2.0941,2.0939,2.0945,2.0945,2.0945,2.0944,0,2.0234,2.0274,2.0343,2.0407,2.0424,2.0464,2.0519,2.0558,2.0591,2.0649,2.0664,2.0717,2.0776,2.0818,2.0895,2.0916,2.0983,2.0991,2.0964,2.0968,2.0994,2.0991,2.1074,2.1087,2.1037,2.1037,2.1038,0,2.0266,2.0305,2.0373,2.0404,2.0436,2.0488,2.0523,2.0562,2.0599,2.0664,2.0695,2.0755,2.0806,2.0899,2.0945,2.1004,2.1013,2.1038,2.1022,2.1011,2.1014,2.1011,2.1015,2.1041,2.1041,2.1041,2.1041,0,2.0317,2.0335,2.0385,2.0441,2.0483,2.053,2.0577,2.0602,2.065,2.0689,2.0749,2.0788,2.0866,2.0926,2.0989,2.1024,2.1041,2.1046,2.1056,2.1046,2.1029,2.1039,2.097,2.1044,2.1044,2.1044,2.1043,2.1043,2.0348,2.0384,2.0437,2.0492,2.0531,2.0575,2.0613,2.0651,2.0701,2.0766,2.0787,2.0849,2.0903,2.0989,2.1025,2.1075,2.1074,2.1088,2.1092,2.1095,2.1094,2.1021,2.1087,2.1087,2.1087,2.1087,2.1087,0,2.0401,2.0436,2.0486,2.055,2.0594,2.0604,2.0657,2.0693,2.0747,2.0795,2.0844,2.0913,2.0971,2.1021,2.1082,2.1112,2.1121,2.1127,2.1125,2.1133,2.1092,2.1077,2.1118,2.1118,2.1118,2.1118,2.1118,2.1118,2.0433,2.0494,2.0518,2.0599,2.0634,2.0694,2.0723,2.0764,2.0803,2.0878,2.0926,2.0957,2.1007,2.1071,2.1125,2.1139,2.116,2.1163,2.1178,2.1139,2.1136,2.1132,2.1118,2.1168,2.1168,2.1215,2.1216,2.1216]},{"header":{"parameterUnit":"m.s-1","parameterCategory":1,"la1":30.2991,"la2":30.254,"lo1":-89.0895,"lo2":-89.0444,"dy":0.0017,"dx":0.0017,"nx":28,"ny":28,"refTime":"2025-08-22T21:00:00:Z","depth":0,"parameterNumber":3,"parameterNumberName":"V-component_of_WINDS"},"data":[0,0,0,0,0,0,0,0,0,0,0,0,0,0,0,0,0,0,0,0,0,0,0,0,0,0,0,0,0,0,0,0,0,0,0,0,0,0,0,0,0,0,0,0,0,0,0,0,0,0,0,0,0,0,0,0,0,0,3.314,3.314,0,3.3186,3.3187,3.3187,3.3168,3.3167,3.3166,3.3165,3.321,3.3212,3.3214,0,0,0,0,0,0,0,0,0,0,0,0,0,3.3029,3.3031,3.314,3.314,3.3141,3.3186,3.3187,3.3187,3.3169,3.3167,3.3166,3.3165,3.3209,3.3212,3.3214,0,0,0,0,0,0,0,0,0,0,0,0,0,3.3077,3.3032,3.314,3.3137,3.3137,3.3186,3.3187,3.3188,3.3169,3.3167,3.3166,3.3164,3.3208,3.3211,3.3215,3.3268,0,0,3.3225,3.3226,0,0,0,0,0,0,0,0,3.3074,3.3081,3.3137,3.3137,3.3138,3.317,3.3164,3.3214,3.3169,3.3157,3.3165,3.3163,3.3198,3.3202,3.3214,3.327,3.3272,3.3225,3.3227,3.3229,3.323,0,0,0,0,0,0,0,3.3071,3.3078,3.3158,3.3138,3.3138,3.3132,3.3137,3.3174,3.3186,3.3158,3.3156,3.3162,3.3198,3.3211,3.3215,3.3273,3.3225,3.3228,3.323,3.3231,3.337,3.3372,0,0,0,0,0,0,3.3068,3.3076,3.3156,3.3159,3.3101,3.3135,3.3141,3.3161,3.3185,3.3187,3.3164,3.3161,3.3206,3.3211,3.3216,3.3277,3.3229,3.3232,3.3234,3.3368,3.337,3.3372,0,0,0,0,0,0,3.3066,3.3075,3.3155,3.3117,3.3127,3.3139,3.3162,3.3163,3.3176,3.319,3.3192,3.3175,3.3205,3.3212,3.3254,3.3278,3.3233,3.3236,3.3366,3.3369,3.3371,3.34,0,0,0,0,0,0,3.3062,3.3075,3.3096,3.3118,3.3129,3.3194,3.3164,3.3165,3.3182,3.318,3.3201,3.3203,3.3204,3.325,3.3258,3.3282,3.3239,3.3364,3.3367,3.337,3.3397,3.3404,3.3409,0,0,0,0,0,3.3059,3.3103,3.3098,3.3107,3.3157,3.3195,3.3201,3.3202,3.3184,3.3205,3.3213,3.3203,3.3275,3.3254,3.3263,3.3289,3.3363,3.3367,3.337,3.3395,3.3402,3.3409,0,0,0,0,0,0,3.3084,3.3106,3.31,3.3153,3.3172,3.3192,3.3218,3.3211,3.3235,3.3231,3.3231,3.3236,3.3279,3.3289,3.3265,3.3339,3.3316,3.3322,3.3331,3.3339,3.3344,3.334,3.3242,0,0,0,0,0,3.3096,3.3126,3.3144,3.3188,3.3198,3.3207,3.3224,3.3222,3.3242,3.325,3.3261,3.3279,3.3306,3.3323,3.3349,3.3399,3.3402,3.3421,3.3427,3.3432,3.3436,3.3459,3.3467,3.3385,3.3385,3.3385,0,0,3.312,3.3136,3.3155,3.3194,3.3209,3.3238,3.3214,3.3247,3.3268,3.3254,3.3294,3.3304,3.3324,3.3369,3.339,3.3379,3.3459,3.3436,3.344,3.3442,3.3464,3.3472,3.3478,3.3387,3.3387,3.3386,0,0,3.3179,3.3196,3.3233,3.3248,3.327,3.3275,3.3284,3.3304,3.3309,3.335,3.3339,3.3364,3.3411,3.3424,3.3437,3.3498,3.3487,3.3506,3.3536,3.3559,3.3565,3.3571,3.3589,3.3596,3.3511,3.3511,3.3511,0,3.3206,3.3251,3.3253,3.3286,3.3301,3.3291,3.3327,3.3341,3.337,3.338,3.3368,3.3423,3.3437,3.3483,3.3498,3.351,3.3518,3.3503,3.3564,3.357,3.3575,3.3593,3.36,3.3513,3.3513,3.3512,3.3512,0,3.3281,3.3313,3.334,3.3368,3.3387,3.3421,3.3426,3.3445,3.3442,3.3447,3.3486,3.3502,3.3528,3.354,3.3537,3.3585,3.3577,3.3565,3.354,3.3585,3.3601,3.3608,3.3516,3.3515,3.3514,3.3514,0,0,3.3357,3.3384,3.3394,3.3405,3.3428,3.3451,3.3484,3.351,3.3524,3.3544,3.3569,3.3608,3.3596,3.361,3.3609,3.363,3.3672,3.3614,3.3615,3.3622,3.3722,3.3729,3.3737,3.3667,3.3668,3.3669,3.3719,0,3.3415,3.3473,3.3474,3.3526,3.3552,3.3542,3.357,3.3585,3.3591,3.3613,3.3619,3.3645,3.3629,3.3637,3.3657,3.3663,3.3692,3.366,3.3687,3.3688,3.3679,3.3746,3.3754,3.38,3.3726,3.3727,3.3728,0,3.3491,3.3512,3.3567,3.3582,3.3593,3.3619,3.364,3.3663,3.368,3.3682,3.3697,3.3692,3.3723,3.3699,3.3739,3.3717,3.3729,3.3733,3.3735,3.3735,3.3709,3.3745,3.3816,3.3821,3.3738,3.3737,3.3736,0,3.3535,3.3579,3.3616,3.3626,3.3646,3.3663,3.3672,3.3688,3.3702,3.3721,3.373,3.3753,3.3764,3.3781,3.3781,3.3765,3.3821,3.3798,3.3821,3.3821,3.3831,3.383,3.3902,3.3844,3.3844,3.3843,3.3843,0,3.3598,3.3631,3.3636,3.3658,3.3694,3.3694,3.3728,3.3736,3.3749,3.3771,3.3764,3.3784,3.3785,3.3806,3.3806,3.3837,3.3843,3.3844,3.3843,3.3843,3.3843,3.3849,3.3844,3.3845,3.3845,3.3844,3.3844,0,3.3654,3.3659,3.3698,3.3713,3.3718,3.3743,3.3755,3.3775,3.378,3.3808,3.3814,3.3821,3.3844,3.3847,3.3874,3.3874,3.3911,3.3908,3.3905,3.3904,3.3925,3.3922,3.4001,3.401,3.3949,3.3949,3.395,0,3.3692,3.3717,3.3734,3.3749,3.3758,3.3782,3.3796,3.3797,3.3812,3.3831,3.3848,3.3871,3.3889,3.3926,3.3933,3.3953,3.3949,3.3975,3.3951,3.3949,3.3945,3.3942,3.3943,3.3978,3.3979,3.398,3.398,0,3.3758,3.3758,3.378,3.3801,3.3818,3.3835,3.3851,3.3863,3.3865,3.3881,3.3905,3.3919,3.3947,3.3968,3.3988,3.3995,3.3987,3.3988,3.3993,3.3992,3.3988,3.3987,3.3914,3.3985,3.3985,3.3984,3.3984,3.3984,3.3804,3.3824,3.3838,3.3861,3.3873,3.3887,3.3906,3.3912,3.3932,3.3954,3.3953,3.3978,3.3992,3.4017,3.4026,3.4044,3.4035,3.4045,3.4046,3.4048,3.4048,3.3987,3.4048,3.4048,3.4048,3.4048,3.4048,0,3.3866,3.3875,3.3896,3.3917,3.3934,3.3927,3.3943,3.3957,3.398,3.3993,3.401,3.4036,3.4056,3.4064,3.4083,3.4096,3.4093,3.4101,3.4099,3.41,3.4057,3.4048,3.4103,3.4103,3.4103,3.4103,3.4103,3.4103,3.3901,3.3933,3.3935,3.3971,3.3979,3.4004,3.4013,3.4026,3.4036,3.4065,3.4081,3.4086,3.4096,3.4116,3.4133,3.4135,3.4141,3.415,3.415,3.4109,3.4103,3.4098,3.409,3.4152,3.4152,3.419,3.4191,3.4191]}]]